Location: Unspecified
(0.0000°N, 0.0000°E)
Time: 04:06:27
(UTC+00:00)

Vanguard 1 - Pass Details

Date: 13 December 2023
Orbit: 653 x 3826 km, 34.3° (Epoch: 22 February)

Event Time Altitude Azimuth Distance (km) Brightness Sun altitude
Rises 14:49:39 0° 287° (WNW) 3,769 13.5 41.5°
Reaches altitude 10° 14:53:15 10° 309° (NW) 3,222 13.0 40.7°
Maximum altitude 14:58:02 16° 346° (NNW) 3,322 12.8 39.7°
Drops below altitude 10° 15:04:27 10° 20° (NNE) 4,549 13.2 38.3°
Sets 15:11:31 0° 38° (NE) 6,315 13.7 36.8°
